Weather History for Lamar, CO

Change the Weather History Date:

Thursday, March 6, 2014

  Actual Average Record
Temperature  
Mean Temperature 49 °F 39 °F  
Max Temperature 75 °F 55 °F 86 °F (1925)
Min Temperature 22 °F 23 °F -17 °F (1948)
Degree Days  
Heating Degree Days 16 26  
Month to date heating degree days 215 161  
Since 1 July heating degree days 4496 4472  
Cooling Degree Days 0 0  
Month to date cooling degree days 0 0  
Year to date cooling degree days 0 0  
Moisture  
Dew Point 22 °F    
Average Humidity 51    
Maximum Humidity 92    
Minimum Humidity 9    
Precipitation  
Precipitation 0.00 in 0.03 in 0.38 in (1992)
Month to date precipitation 0.04 0.15  
Year to date precipitation 0.31 0.82  
Sea Level Pressure  
Sea Level Pressure 29.85 in    
Wind  
Wind Speed 8 mph (SW)    
Max Wind Speed 22 mph    
Max Gust Speed 27 mph    
Visibility 10 miles    
Events      
T = Trace of Precipitation, MM = Missing Value Source: NWS Daily Summary

Daily Weather History Graph

Daily Weather History Graph

Search for Another Location

Airport:

Trip Planner

Search our weather history database for the weather conditions in past years. The results will help you decide how hot, cold, wet, or windy it might be!

Date:

Astronomy

Mar. 06, 2014 Rise Set
Actual Time 6:15 AM MST 5:49 PM MST
Civil Twilight 5:48 AM MST 6:15 PM MST
Nautical Twilight 5:18 AM MST 6:46 PM MST
Astronomical Twilight 4:47 AM MST 7:16 PM MST
Moon 9:30 AM MST (3/6) 11:51 PM MST (3/6)
Length of Visible Light 12h 26m
Length of Day
11h 34m
Waxing Crescent, 33% of the Moon is Illuminated
Mar 6
Waxing Crescent
Mar 8
First Quarter
Mar 16
Full
Mar 23
Last Quarter
Mar 30
New

Hourly Weather History & Observations

Time (MST) Temp. Windchill Dew Point Humidity Pressure Visibility Wind Dir Wind Speed Gust Speed Precip Events Conditions
12:53 AM 34.0 °F 31.0 °F 27.0 °F 75% 30.07 in 10.0 mi NW 3.5 mph - N/A   Clear
1:53 AM 36.0 °F 33.3 °F 27.0 °F 70% 30.04 in 10.0 mi Variable 3.5 mph - N/A   Clear
2:53 AM 28.0 °F 22.8 °F 23.0 °F 81% 30.04 in 10.0 mi ENE 4.6 mph - N/A   Clear
3:53 AM 28.9 °F 21.9 °F 25.0 °F 85% 30.00 in 10.0 mi East 6.9 mph - N/A   Clear
4:53 AM 21.9 °F 15.7 °F 19.9 °F 92% 30.02 in 9.0 mi WSW 4.6 mph - N/A   Clear
5:53 AM 23.0 °F - 19.9 °F 88% 30.02 in 10.0 mi Calm Calm - N/A   Clear
6:53 AM 25.0 °F - 21.9 °F 88% 30.03 in 9.0 mi Calm Calm - N/A   Clear
7:53 AM 36.0 °F 31.1 °F 28.0 °F 73% 30.00 in 10.0 mi West 5.8 mph - N/A   Clear
8:53 AM 41.0 °F 36.4 °F 28.0 °F 60% 29.99 in 10.0 mi WNW 6.9 mph - N/A   Clear
9:53 AM 50.0 °F - 28.9 °F 44% 29.95 in 10.0 mi WNW 6.9 mph - N/A   Clear
10:53 AM 59.0 °F - 28.0 °F 31% 29.90 in 10.0 mi West 4.6 mph - N/A   Clear
11:53 AM 68.0 °F - 21.0 °F 17% 29.83 in 10.0 mi SW 11.5 mph - N/A   Clear
12:53 PM 71.1 °F - 15.1 °F 12% 29.78 in 10.0 mi West 16.1 mph 23.0 mph N/A   Clear
1:53 PM 73.0 °F - 12.9 °F 10% 29.73 in 10.0 mi WSW 10.4 mph - N/A   Clear
2:53 PM 73.0 °F - 10.9 °F 9% 29.71 in 10.0 mi WSW 12.7 mph - N/A   Clear
3:53 PM 71.1 °F - 15.1 °F 12% 29.71 in 10.0 mi SSW 5.8 mph - N/A   Clear
4:53 PM 66.9 °F - 21.9 °F 18% 29.73 in 10.0 mi SE 3.5 mph - N/A   Clear
5:53 PM 59.0 °F - 23.0 °F 25% 29.74 in 10.0 mi SE 10.4 mph - N/A   Clear
6:53 PM 57.0 °F - 21.0 °F 25% 29.74 in 10.0 mi SSE 12.7 mph - N/A   Clear
7:53 PM 57.9 °F - 21.9 °F 25% 29.70 in 10.0 mi South 18.4 mph - N/A   Clear
8:53 PM 55.9 °F - 21.9 °F 27% 29.67 in 10.0 mi South 20.7 mph - N/A   Clear
9:53 PM 50.0 °F - 23.0 °F 35% 29.66 in 10.0 mi SSW 12.7 mph - N/A   Clear
10:53 PM 51.1 °F - 23.0 °F 33% 29.62 in 10.0 mi SSW 10.4 mph - N/A   Clear
11:53 PM 46.0 °F 41.9 °F 24.1 °F 42% 29.61 in 10.0 mi WSW 8.1 mph - N/A   Clear